THOR ABLESTAR DEB, 13514

Orbit data source: Space-Track

THOR ABLESTAR DEB, 13514 is space debris in LEO originally from a launch on Thu, 29 Jun 1961 UTC launched from the Air Force Eastern Test Range (AFETR). Debris objects in space refer to the collection of defunct objects orbiting the Earth. Examples of debris include non-operational satellites, rocket bodies, and fragments generated from explosions, collisions, or faulty payload assembly.

Loading next visibility...
Identifier
13514, 1961-015KX
Orbit
LEO
Country
Flag of USUS
Related business
Manufacturer
Unknown
Mission
Spacecraft
Bus & Motor
Unknown
Mass
Unknown
Launch date (UTC)
1961-06-29 (64 years ago)
Launch vehicle
Unknown
Launch site
Air Force Eastern Test Range (AFETR)
Object type
Payload
Rocket body
Debris
Shape & HBR
Unknown shape, 0.1 m
Radar Cross Section
Small (<0.1 m²)

Expand to show TLE details & history
Last TLE update: 14 hours ago

TLE from 14 hours ago
0 THOR ABLESTAR DEB
1 13514U 61015KX  25297.51979058  .00000331  00000-0  51305-3 0  9990
2 13514  66.7147 205.9334 0244667 180.8581   2.6059 13.51143887232722
Epoch: 2025-10-24T12:28Z
TLE epoch observation values (Epoch: 2025-10-24T12:28:29.906Z)
Latitude
-3.42036°
Longitude
167.1114°
Altitude
888.588 km
Speed
7.498 km/s
True Right ascension
01h 49m 35s
True Declination
-3° 24' 01"
Sunlit
Object was in full shadow at epoch
Visualization orbit readout
Latitude
Unknown
Longitude
Unknown
Altitude
Unknown
Speed
Unknown
Apparent Right ascension
Unknown
Apparent Declination
Unknown
Sunlit
N/A
Visualization observer readout
Local Sidereal Time
21:29:05
Azimuth
Unknown
Elevation
Unknown
Doppler factor
Unknown
Orbital elements
Apogee altitude
1,248.631 km
Perigee altitude
884.34 km
Semi-major axis
7,444.622 km
Eccentricity
0.02447
Inclination
66.7147°
RAAN
205.9334°
Arg. of periapsis
180.8581°
True anomaly
2.73738°
Mean anomaly
2.6059°
Eccentric anomaly
2.67123°
Mean motion
3.37893 °/min
Orbital period
106.54 mins
BSTAR
0.00051305
Loading maneuver chart data...
Computing Atmospheric mass density...

Documentation

Showing up to 5 results
|